Погода в Бутырках

Россия / Воронежская область     51°03′55″N   38°37′03″E
темп.,
°C
ветер,
м/с
пор.,
м/с
влажн.,
%
обл.,
%
осадки,
мм/ч
давл.,
гПа
погр.,
м
19 мая, ср
ср1900:00+13ю3794100 0.4 1005145
03:00+12ююв38953 0.4 1006177
06:00+12ююв4994100 0.0 1007347
09:00+16ю5681100 0.1 1007782
12:00+18юв6772100 0.6 10061114
15:00+14ююз2596100 8.0 1007342
18:00+12зюз4695100 1.5 1005278
21:00+11ююв3896100 2.4 1006287
20 мая, чт
чт2000:00+11юв510968 0.3 1005350
03:00+10ююв499849 0.3 1005269
06:00+11юв369773 0.0 1005320
09:00+13ююз4685100 0.1 1006687
12:00+13ююз5889100 0.4 1007652
15:00+14юз5986100 0.4 1008748
18:00+14зюз598499 0.1 1010762
21:00+11юз499217 0.1 1011318
21 мая, пт
пт2100:00+9юз389699 0.0 1012191
03:00+11юз3693100 0.0 1013284
06:00+11зюз3691100 0.0 1014309
09:00+15сз3369100 0.0 1016731
12:00+17с3255100 0.0 10151029
15:00+19св335498 0.0 10151122
18:00+18всв3468100 0.0 1015298
21:00+15св51073100 0.1 1016286
22 мая, сб
сб2200:00+14св51279100 0.1 1016384
03:00+13св61191100 0.7 1016394
06:00+13св71492100 0.0 1015428
09:00+15св81489100 0.1 1015587
12:00+18всв9127792 0.0 1015976
15:00+19св7978100 0.1 1015927
18:00+19св61077100 0.0 1014659
21:00+16св51292100 0.0 1014350
23 мая, вс
вс2300:00+14всв4119679 0.0 1013308
03:00+13ссв4797100 0.0 1012160
06:00+14всв4992100 0.0 1010206
09:00+20всв577590 0.1 1009367
12:00+25вюв355999 0.0 1008802
15:00+26вюв2459100 0.0 1006742
18:00+27ююв1461100 0.0 10051011
21:00+20сз34780 0.0 100550